Xi'An, China

9:26 AM CST on March 25, 2017 (GMT +0800)
Xianyang

Weather History for ZLXY - April, 2013

Change the Weather History Date:

Thursday, April 4, 2013

  Actual Average Record
Temperature  
Mean Temperature 56 °F -  
Max Temperature 62 °F 65 °F 77 °F (2005)
Min Temperature 51 °F 45 °F 30 °F (2007)
Degree Days  
Heating Degree Days 8    
Growing Degree Days 6 (Base 50)    
Moisture  
Dew Point 48 °F    
Average Humidity 76    
Maximum Humidity 100    
Minimum Humidity 59    
Precipitation  
Precipitation 0.00 in - - ()
Sea Level Pressure  
Sea Level Pressure 29.78 in    
Wind  
Wind Speed 8 mph ()    
Max Wind Speed 16 mph    
Max Gust Speed -    
Visibility 2.0 miles    
Events Rain    
Averages and records for this station are not official NWS values.
T = Trace of Precipitation, MM = Missing Value Source: Averaged Metar Reports

Daily Weather History Graph

Daily Weather History Graph

Search for Another Location

Airport or City:

Trip Planner

Search our weather history database for the weather conditions in past years. The results will help you decide how hot, cold, wet, or windy it might be!

Date:

Astronomy

Apr. 04, 2013 Rise Set
Actual Time 6:27 AM CST 7:07 PM CST
Civil Twilight 6:02 AM CST 7:32 PM CST
Nautical Twilight 5:32 AM CST 8:02 PM CST
Astronomical Twilight 5:02 AM CST 8:33 PM CST
Moon 2:14 AM CST (4/4) 1:04 PM CST (4/4)
Length of Visible Light 13h 30m
Length of Day
12h 39m
Last Quarter, 39% of the Moon is Illuminated
Apr 4
Last Quarter
Apr 10
New
Apr 18
First Quarter
Apr 26
Full
May 2
Last Quarter

Hourly Weather History & Observations

Time (CST) Temp. Dew Point Humidity Pressure Visibility Wind Dir Wind Speed Gust Speed Precip Events Conditions
12:00 AM 55.4 °F 44.6 °F 67% 29.68 in 3.1 mi NNE 4.5 mph - N/A   Haze
1:00 AM 57.2 °F 44.6 °F 63% 29.68 in 3.1 mi NNE 8.9 mph - N/A   Haze
2:00 AM 57.2 °F 44.6 °F 63% 29.68 in 3.7 mi NNE 8.9 mph - N/A   Unknown
3:00 AM 57.2 °F 44.6 °F 63% 29.68 in 3.1 mi NE 8.9 mph - N/A   Haze
4:00 AM 53.6 °F 44.6 °F 72% 29.68 in 2.5 mi North 2.2 mph - N/A   Haze
5:00 AM 53.6 °F 46.4 °F 77% 29.68 in 1.9 mi NE 4.5 mph - N/A   Mist
6:00 AM 57.2 °F 46.4 °F 67% 29.71 in 2.5 mi ENE 11.2 mph - N/A   Haze
7:00 AM 55.4 °F 44.6 °F 67% 29.71 in 1.9 mi ENE 13.4 mph - N/A   Haze
8:00 AM 57.2 °F 46.4 °F 67% 29.71 in 1.9 mi ENE 13.4 mph - N/A   Haze
9:00 AM 59.0 °F 46.4 °F 63% 29.71 in 1.9 mi NE 15.7 mph - N/A   Haze
10:00 AM 60.8 °F 46.4 °F 59% 29.74 in 1.9 mi NE 15.7 mph - N/A   Haze
11:00 AM 62.6 °F 48.2 °F 59% 29.74 in 1.9 mi NE 13.4 mph - N/A   Haze
12:00 PM 62.6 °F 48.2 °F 59% 29.77 in 1.6 mi Variable 2.2 mph - N/A   Haze
1:00 PM 59.0 °F 48.2 °F 67% 29.77 in 1.2 mi West 13.4 mph - N/A   Haze
2:00 PM 57.2 °F 50.0 °F 77% 29.77 in 1.2 mi West 11.2 mph - N/A Rain Light Rain
3:00 PM 55.4 °F 50.0 °F 82% 29.77 in 1.6 mi West 11.2 mph - N/A Rain Light Rain
4:00 PM 55.4 °F 51.8 °F 88% 29.80 in 1.2 mi West 6.7 mph - N/A Rain Light Rain
5:00 PM 53.6 °F 51.8 °F 94% 29.83 in 1.6 mi West 8.9 mph - N/A Rain Light Rain
6:00 PM 53.6 °F 51.8 °F 94% 29.86 in 1.9 mi WSW 6.7 mph - N/A Rain Light Rain
7:00 PM 53.6 °F 51.8 °F 94% 29.86 in 1.9 mi SSW 4.5 mph - N/A Rain Light Rain
8:00 PM 53.6 °F 51.8 °F 94% 29.92 in 1.9 mi SSW 6.7 mph - N/A Rain Light Rain
9:00 PM 51.8 °F 51.8 °F 100% 29.95 in 1.2 mi SW 2.2 mph - N/A Rain Light Rain
10:00 PM 51.8 °F 51.8 °F 100% 30.01 in 1.2 mi WSW 6.7 mph - N/A Rain Light Rain
11:00 PM 53.6 °F 51.8 °F 94% 30.04 in 1.9 mi WSW 11.2 mph - N/A Rain Light Rain